This is the latest recevied weather packets stored in our database for station/object IW1CBG-3. If no packets are shown the sender has not sent any weather packets the latest 1 day(s).
| Time | Temp. | Humidity | Pressure | Rain* | Wind** | Luminosity | Snow |
|---|---|---|---|---|---|---|---|
| 1778022467 | 9.44° C | 99% | 1023.7 hPa | 0 mm | 0 m/s | - | - |
| 1778021867 | 9.44° C | 99% | 1023.9 hPa | 0 mm | 0 m/s | - | - |
| 1778021267 | 9.44° C | 99% | 1023.8 hPa | 0 mm | 0.45 m/s, 142° | - | - |
| 1778020667 | 9.44° C | 99% | 1023.9 hPa | 0 mm | 1.34 m/s, 174° | - | - |
| 1778020067 | 9.44° C | 99% | 1023.8 hPa | 0 mm | 0 m/s | - | - |
| 1778019468 | 9.44° C | 99% | 1024.3 hPa | 0 mm | 1.34 m/s, 164° | - | - |
| 1778018866 | 9.44° C | 99% | 1024.4 hPa | 0 mm | 0 m/s | - | - |
| 1778018267 | 9.44° C | 99% | 1024.4 hPa | 0 mm | 0.45 m/s, 131° | - | - |
| 1778017668 | 9.44° C | 99% | 1024.4 hPa | 0 mm | 0.89 m/s, 150° | - | - |
| 1778017068 | 9.44° C | 99% | 1024.6 hPa | 0 mm | 0.89 m/s, 165° | - | - |
| 1778016467 | 9.44° C | 99% | 1024.6 hPa | 0 mm | 1.34 m/s, 137° | - | - |
| 1778015867 | 9.44° C | 99% | 1024.7 hPa | 0 mm | 0 m/s | - | - |
| 1778015267 | 9.44° C | 99% | 1024.9 hPa | 0 mm | 0.89 m/s, 114° | - | - |
| 1778014667 | 9.44° C | 99% | 1024.9 hPa | 0 mm | 0.89 m/s, 92° | - | - |
| 1778013469 | 9.44° C | 99% | 1024.9 hPa | 0 mm | 0 m/s | - | - |
| 1778012868 | 9.44° C | 99% | 1024.8 hPa | 0 mm | 0.89 m/s, 313° | - | - |
| 1778012268 | 9.44° C | 99% | 1024.9 hPa | 0 mm | 0.89 m/s, 357° | - | - |
| 1778011668 | 9.44° C | 99% | 1024.7 hPa | 0 mm | 0.89 m/s, 125° | - | - |
| 1778011068 | 9.44° C | 99% | 1024.6 hPa | 0 mm | 0 m/s | - | - |
| 1778010467 | 9.44° C | 99% | 1024.6 hPa | 0 mm | 1.34 m/s, 125° | - | - |
| 1778009867 | 9.44° C | 99% | 1024.6 hPa | 0 mm | 0 m/s | - | - |
| 1778009267 | 9.44° C | 99% | 1024.5 hPa | 0 mm | 0.45 m/s, 195° | - | - |
| 1778008667 | 9.44° C | 98% | 1024.5 hPa | 0 mm | 0 m/s | - | - |
| 1778008067 | 9.44° C | 98% | 1024.5 hPa | 0 mm | 1.34 m/s, 129° | - | - |
| 1778007468 | 9.44° C | 98% | 1024.2 hPa | 0 mm | 0 m/s | - | - |
* Rain latest hour (hover to see other rain measurements)
** Current wind speed in m/s (hover to see current wind gust speed)